This is the latest recevied weather packets stored in our database for station/object ENRA. If no packets are shown the sender has not sent any weather packets the latest 10 day(s).
| Time | Temp. | Humidity | Pressure | Rain* | Wind** | Luminosity | Snow |
|---|---|---|---|---|---|---|---|
| 1777950186 | -2.22° C | 10% | - | - | - | - | - |
| 1777948386 | -2.22° C | 10% | - | - | - | - | - |
| 1777946586 | -1.11° C | 10% | - | - | - | - | - |
| 1777944786 | -1.11° C | 10% | - | - | - | - | - |
| 1777942987 | -1.11° C | 10% | - | - | - | - | - |
| 1777941186 | 0° C | 92% | 1000 hPa | - | - | - | - |
| 1777939386 | 0.56° C | 80% | 1000 hPa | - | - | - | - |
| 1777937587 | 0.56° C | 74% | 999 hPa | - | - | - | - |
| 1777935788 | 1.67° C | 69% | 999 hPa | - | - | - | - |
| 1777933987 | 0.56° C | 80% | 999 hPa | - | - | - | - |
| 1777932207 | 1.67° C | 74% | 999 hPa | - | - | - | - |
| 1777930389 | 1.67° C | 74% | 999 hPa | - | - | - | - |
| 1777928587 | 2.78° C | 69% | 999 hPa | - | - | - | - |
| 1777926790 | 2.78° C | 64% | 999 hPa | - | - | - | - |
| 1777924991 | 2.78° C | 64% | 999 hPa | - | - | - | - |
| 1777923191 | 2.78° C | 69% | 999 hPa | - | - | - | - |
| 1777921390 | 2.78° C | 64% | 998 hPa | - | - | - | - |
| 1777919588 | 3.89° C | 69% | 998 hPa | - | - | - | - |
| 1777917787 | 3.89° C | 69% | 998 hPa | - | - | - | - |
| 1777915991 | 3.89° C | 69% | 998 hPa | - | - | - | - |
| 1777914190 | 3.89° C | 69% | 998 hPa | - | - | - | - |
| 1777912390 | 5° C | 65% | 997 hPa | - | - | - | - |
| 1777910588 | 5° C | 70% | 997 hPa | - | - | - | - |
| 1777908788 | 5° C | 70% | 997 hPa | - | - | - | - |
| 1777906988 | 5.56° C | 65% | 997 hPa | - | - | - | - |
* Rain since midnight (hover to see other rain measurements)
** Current wind speed in m/s (hover to see current wind gust speed)